Date String (YYYY-MM-DD hh:mm:ss) UTC,Instrument flags,Ambient pressure (hPa),Sample flow (lpm),Bypass flow (lpm),Sample temperature (°C),Ambient temperature (°C),ASC tube jacket temperature (°C),LED temperature (°C),Box temperature (°C),Sample RH (%),Span deviation,Mass concentration (μg/m³),Mass concentration (μg/m³),Mass concentration (μg/m³)
DateTimeUTC,F1_M11,P_M11,Q1_M11,Q2_M11,T1_M11,T2_M11,T3_M11,T4_M11,T5_M11,U1_M11,ZSPAN_M11,X0_M11,X2_M11,X1_M11
2022-02-01 07:00:00,,0818.4,5.00,0.00,22.6,21.8,00.0,31.8,24.2,09.8,0000.0,0010.65,0003.26,0002.15
2022-02-01 07:01:00,,0818.3,5.01,0.00,22.6,21.8,00.0,31.8,24.2,09.9,0000.0,0010.66,0003.26,0002.13
2022-02-01 07:02:00,,0818.2,4.98,0.00,22.6,21.7,00.0,31.7,24.2,09.9,0000.0,0010.65,0003.25,0002.10
2022-02-01 07:03:00,,0818.2,5.01,0.00,22.5,21.7,00.0,31.7,24.2,09.9,0000.0,0010.66,0003.27,0002.10
2022-02-01 07:04:00,,0818.3,5.00,0.00,22.5,21.6,00.0,31.7,24.2,09.8,0000.0,0011.44,0003.29,0002.09
2022-02-01 07:05:00,,0818.3,5.00,0.00,22.5,21.5,00.0,31.7,24.2,09.9,0000.0,0011.76,0003.27,0002.08
2022-02-01 07:06:00,,0818.4,5.00,0.00,22.4,21.4,00.0,31.6,24.1,09.9,0000.0,0012.12,0003.27,0002.06
2022-02-01 07:07:00,,0818.4,4.99,0.00,22.4,21.4,00.0,31.6,24.1,09.9,0000.0,0011.29,0003.27,0002.07
2022-02-01 07:08:00,,0818.3,5.00,0.00,22.4,21.3,00.0,31.6,24.0,09.9,0000.0,0011.12,0003.26,0002.08
2022-02-01 07:09:00,,0818.4,5.01,0.00,22.3,21.3,00.0,31.6,24.0,09.9,0000.0,0010.61,0003.29,0002.10
2022-02-01 07:10:00,,0818.4,4.99,0.00,22.3,21.3,00.0,31.5,24.0,09.9,0000.0,0010.47,0003.30,0002.12
2022-02-01 07:11:00,,0818.5,5.01,0.00,22.3,21.3,00.0,31.5,24.0,10.0,0000.0,0010.74,0003.32,0002.12
2022-02-01 07:12:00,,0818.5,4.99,0.00,22.3,21.4,00.0,31.5,24.0,10.0,0000.0,0011.26,0003.35,0002.14
2022-02-01 07:13:00,,0818.5,5.01,0.00,22.3,21.5,00.0,31.5,24.1,10.0,0000.0,0011.76,0003.37,0002.16
2022-02-01 07:14:00,,0818.5,4.99,0.00,22.3,21.5,00.0,31.5,24.0,10.1,0000.0,0012.91,0003.37,0002.18
2022-02-01 07:15:00,,0818.5,5.00,0.00,22.3,21.5,00.0,31.5,24.0,10.1,0000.0,0012.57,0003.40,0002.19
2022-02-01 07:16:00,,0818.5,5.01,0.00,22.3,21.4,00.0,31.4,24.0,10.2,0000.0,0012.69,0003.41,0002.20
2022-02-01 07:17:00,,0818.6,4.98,0.00,22.3,21.4,00.0,31.4,23.9,10.2,0000.0,0012.51,0003.45,0002.23
2022-02-01 07:18:00,,0818.5,5.01,0.00,22.2,21.3,00.0,31.4,23.9,10.2,0000.0,0012.19,0003.45,0002.24
2022-02-01 07:19:00,,0818.5,4.99,0.00,22.2,21.3,00.0,31.4,23.8,10.2,0000.0,0012.68,0003.48,0002.26
2022-02-01 07:20:00,,0818.5,5.00,0.00,22.2,21.3,00.0,31.4,23.8,10.2,0000.0,0013.60,0003.43,0002.26
2022-02-01 07:21:00,,0818.5,4.99,0.00,22.1,21.3,00.0,31.3,23.7,10.2,0000.0,0014.28,0003.42,0002.26
2022-02-01 07:22:00,,0818.5,5.00,0.00,22.1,21.2,00.0,31.3,23.7,10.3,0000.0,0013.74,0003.44,0002.28
2022-02-01 07:23:00,,0818.5,5.00,0.00,22.0,21.2,00.0,31.3,23.6,10.3,0000.0,0012.88,0003.47,0002.32
2022-02-01 07:24:00,,0818.5,4.99,0.00,22.0,21.2,00.0,31.3,23.6,10.4,0000.0,0012.61,0003.48,0002.33
2022-02-01 07:25:00,,0818.5,5.02,0.00,22.0,21.2,00.0,31.2,23.6,10.3,0000.0,0011.86,0003.52,0002.36
2022-02-01 07:26:00,,0818.8,4.99,0.00,22.0,21.1,00.0,31.2,23.6,10.4,0000.0,0011.89,0003.53,0002.37
2022-02-01 07:27:00,,0818.7,5.01,0.00,21.9,21.1,00.0,31.2,23.6,10.5,0000.0,0011.33,0003.53,0002.38
2022-02-01 07:28:00,,0818.7,4.99,0.00,21.9,21.1,00.0,31.2,23.6,10.5,0000.0,0011.10,0003.56,0002.38
2022-02-01 07:29:00,,0818.6,5.00,0.00,21.9,21.1,00.0,31.1,23.6,10.4,0000.0,0011.21,0003.57,0002.39
2022-02-01 07:30:00,,0818.7,5.01,0.00,21.9,21.1,00.0,31.1,23.6,10.4,0000.0,0010.75,0003.56,0002.41
2022-02-01 07:31:00,,0818.8,4.98,0.00,21.9,21.1,00.0,31.1,23.6,10.5,0000.0,0010.13,0003.57,0002.43
2022-02-01 07:32:00,,0818.7,5.01,0.00,21.9,21.1,00.0,31.1,23.6,10.5,0000.0,0009.75,0003.57,0002.44
2022-02-01 07:33:00,,0818.7,4.99,0.00,21.9,21.1,00.0,31.1,23.6,10.6,0000.0,0009.66,0003.55,0002.44
2022-02-01 07:34:00,,0818.5,5.01,0.00,21.9,21.1,00.0,31.1,23.5,10.5,0000.0,0009.68,0003.55,0002.45
2022-02-01 07:35:00,,0818.7,5.00,0.00,21.8,21.0,00.0,31.0,23.5,10.5,0000.0,0009.92,0003.55,0002.48
2022-02-01 07:36:00,,0818.8,5.02,0.00,21.8,20.9,00.0,31.0,23.4,10.6,0000.0,0010.14,0003.55,0002.49
2022-02-01 07:37:00,,0818.8,4.99,0.00,21.8,21.0,00.0,31.0,23.4,10.6,0000.0,0009.61,0003.50,0002.49
2022-02-01 07:38:00,,0818.8,5.01,0.00,21.8,21.0,00.0,31.0,23.4,10.7,0000.0,0009.91,0003.51,0002.51
2022-02-01 07:39:00,,0818.8,4.99,0.00,21.8,20.9,00.0,31.0,23.4,10.7,0000.0,0010.28,0003.48,0002.53
2022-02-01 07:40:00,,0818.8,5.01,0.00,21.7,20.8,00.0,30.9,23.4,10.7,0000.0,0010.20,0003.48,0002.56
2022-02-01 07:41:00,,0818.8,4.99,0.00,21.7,20.8,00.0,30.9,23.3,10.7,0000.0,0010.10,0003.47,0002.58
2022-02-01 07:42:00,,0818.8,5.01,0.00,21.7,20.8,00.0,30.9,23.3,10.8,0000.0,0010.19,0003.47,0002.60
2022-02-01 07:43:00,,0818.8,4.99,0.00,21.6,20.8,00.0,30.9,23.2,10.7,0000.0,0009.46,0003.47,0002.63
2022-02-01 07:44:00,,0818.8,4.98,0.00,21.6,20.8,00.0,30.8,23.3,10.8,0000.0,0009.41,0003.51,0002.68
2022-02-01 07:45:00,,0818.8,5.01,0.00,21.6,20.8,00.0,30.8,23.2,10.7,0000.0,0009.93,0003.51,0002.69
2022-02-01 07:46:00,,0818.6,5.00,0.00,21.6,20.7,00.0,30.8,23.2,10.8,0000.0,0009.91,0003.53,0002.71
2022-02-01 07:47:00,,0818.5,5.01,0.00,21.5,20.7,00.0,30.8,23.1,10.9,0000.0,0009.33,0003.52,0002.75
2022-02-01 07:48:00,,0818.5,4.98,0.00,21.5,20.7,00.0,30.8,23.1,10.9,0000.0,0009.70,0003.56,0002.80
2022-02-01 07:49:00,,0818.5,5.01,0.00,21.6,21.0,00.0,30.8,23.3,10.9,0000.0,0009.59,0003.57,0002.84
2022-02-01 07:50:00,,0818.6,5.00,0.00,21.7,21.7,00.0,30.8,23.6,10.8,0000.0,0009.07,0003.55,0002.87
2022-02-01 07:51:00,,0818.5,5.01,0.00,21.9,22.5,00.0,30.8,23.8,10.8,0000.0,0009.42,0003.56,0002.91
2022-02-01 07:52:00,,0818.6,4.99,0.00,22.0,22.7,00.0,30.9,24.0,10.8,0000.0,0009.58,0003.57,0002.92
2022-02-01 07:53:00,,0818.6,5.02,0.00,22.0,22.4,00.0,30.9,23.9,10.7,0000.0,0009.60,0003.59,0002.93
2022-02-01 07:54:00,,0818.6,4.99,0.00,21.9,21.9,00.0,30.9,23.7,10.8,0000.0,0009.51,0003.62,0002.95
2022-02-01 07:55:00,,0818.8,5.00,0.00,21.9,21.6,00.0,30.9,23.5,10.8,0000.0,0010.44,0003.66,0002.96
2022-02-01 07:56:00,,0818.7,5.02,0.00,21.8,21.3,00.0,30.9,23.3,11.0,0000.0,0010.98,0003.65,0002.95
2022-02-01 07:57:00,,0818.8,4.99,0.00,21.7,21.1,00.0,30.8,23.3,11.0,0000.0,0011.09,0003.65,0002.94
2022-02-01 07:58:00,,0818.8,5.02,0.00,21.6,21.0,00.0,30.8,23.2,11.0,0000.0,0010.89,0003.64,0002.93
2022-02-01 07:59:00,,0818.7,5.00,0.00,21.6,20.8,00.0,30.8,23.1,11.0,0000.0,0010.55,0003.68,0002.92
